Вернуться в каталог

YAOGAN-30 Q

АктивенВоенныеVLEO
NORAD 44451·PAYLOAD·🇨🇳 China

Запущен Jul 26, 2019 с Xichang Satellite Launch Center

Loading…

Ближайшие Пролёты (ближайшие 24 часа)

TLE

СвежийSource: Space-Track

Эпоха: Sep 14, 2026, 22:39 UTC

1 44451U 19045C   26257.94397468  .00002141  00000-0  15785-3 0  9996
2 44451  34.9928 142.2835 0000648 287.3508  72.7130 15.03042952390060

Отслеживайте YAOGAN-30 Q в реальном времени с AllMySat

Download on the App Store